Location: Caltech
(34.1382°N, 118.1253°W)
Time: 18:59:10
(UTC-07:00)

Iridium 18 - Visible Passes

Search period start: 28 May 2016 00:00
Search period end: 07 June 2016 00:00
Orbit: 776 x 779 km, 86.4° (Epoch: 28 May)

Date Brightness Start Highest point End Pass type
(mag) Time Alt. Az. Time Alt. Az. Time Alt. Az.
28 May 7.7 21:34:31 10° SW 21:38:44 25° W 21:42:59 10° NNW visible
29 May 6.6 21:00:04 10° SSW 21:05:05 48° W 21:10:06 10° N visible
30 May 5.6 20:26:19 10° S 20:31:31 87° E 20:36:45 10° N visible
31 May 8.2 21:35:42 10° WSW 21:38:59 17° WNW 21:42:18 10° NW visible
01 Jun 7.4 21:00:38 10° SW 21:05:14 32° W 21:09:53 10° NNW visible
02 Jun 6.1 20:26:28 10° SSW 20:31:37 63° W 20:36:48 10° N visible
03 Jun 8.6 21:37:58 10° W 21:39:17 11° WNW 21:40:36 10° WNW visible
04 Jun 8.1 21:01:30 10° SW 21:05:27 22° W 21:09:26 10° NNW visible
05 Jun 7.0 20:26:52 10° SSW 20:31:45 41° W 20:36:41 10° NNW visible
